Location: Newark
(47.4000°N, 7.5833°E)
Time: 13:38:33
(UTC+00:00)

ISS - Visible Passes

Search period start: 19 January 2020 00:00
Search period end: 29 January 2020 00:00
Orbit: 415 x 421 km, 51.6° (Epoch: 19 January)

Date Brightness Start Highest point End Pass type
(mag) Time Alt. Az. Time Alt. Az. Time Alt. Az.
19 Jan -1.1 18:12:13 10° S 18:12:26 11° S 18:12:26 11° S visible
20 Jan -0.8 18:59:18 10° SW 18:59:44 13° SW 18:59:44 13° SW visible
21 Jan -2.5 18:11:34 10° SSW 18:14:00 31° S 18:14:00 31° S visible
22 Jan -2.2 17:24:04 10° SSW 17:26:45 22° SE 17:28:10 17° ESE visible
22 Jan -1.2 18:59:53 10° WSW 19:01:07 21° WSW 19:01:07 21° WSW visible
23 Jan -3.9 18:11:50 10° WSW 18:15:12 77° SSE 18:15:12 77° SSE visible
24 Jan -3.4 17:23:55 10° SW 17:27:11 51° SSE 17:29:14 20° E visible
24 Jan -1.2 19:00:44 10° W 19:02:10 22° WNW 19:02:10 22° WNW visible
25 Jan -3.5 18:12:33 10° W 18:15:53 58° NNW 18:16:08 56° N visible
26 Jan -3.7 17:24:24 10° WSW 17:27:46 78° NNW 17:30:04 19° ENE visible
26 Jan -1.2 19:01:38 10° WNW 19:03:00 21° WNW 19:03:00 21° WNW visible
27 Jan -3.0 18:13:24 10° W 18:16:38 41° N 18:16:54 40° N visible
28 Jan -3.2 17:25:10 10° W 17:28:27 48° NNW 17:30:46 17° ENE visible
28 Jan -1.2 19:02:24 10° WNW 19:03:42 20° NW 19:03:42 20° NW visible
